Weather in Os'mino

Russia / Saint-Petersburg and Leningrad Oblast     59°00′46″N   29°04′59″E
temp.,
°C
wind,
m/s
gust,
m/s
humid.,
%
clouds,
%
prec.,
mm/h
press.,
hPa
HPBL,
m
27 january, wed
wed2700:000e499796 0.1 997607
03:000ene379793 0.2 996395
06:000e2598100 0.2 996331
09:00−3e119585 0.4 99628
12:00−2e119226 0.0 998155
15:00−1sw118731 0.0 999311
18:00−3ssw119528 0.0 100021
21:00−3s129732 0.0 100132
28 january, thu
thu2800:00−4s129674 0.0 100325
03:00−4sse129665 0.0 100327
06:00−4sse229576 0.0 100437
09:00−4se129775 0.0 100425
12:00−2se249469 0.0 1004241
15:00−1se249084 0.1 1004379
18:00−3ese2597100 0.1 1003159
21:00−3e2497100 0.1 1002197
29 january, fri
fri2900:00−3e2497100 0.1 1001164
03:00−3ene2497100 0.4 998200
06:00−2ene2696100 0.6 996313
09:00−3ne2596100 1.2 994269
12:00−3ne2493100 0.3 993331
15:00−2nne2492100 0.8 991354
18:00−3nnw1298100 0.5 99063
21:00−4wsw1197100 0.6 98931
30 january, sat
sat3000:00−4sw1296100 0.1 98893
03:00−5ssw1297100 0.1 98746
06:00−6s229788 0.1 98671
09:00−6s239785 0.3 985111
12:00−4ssw249295 0.2 986318
15:00−4ssw259198 0.5 985435
18:00−5s2596100 0.3 986271
21:00−5sse1396100 0.4 986162
31 january, sun
sun3100:00−5se1397100 0.3 986127
03:00−5se2695100 0.6 986354
06:00−6sse2595100 0.2 985229
09:00−6se1296100 0.4 98661
12:00−4ese129195 0.2 987236
15:00−4wnw018996 0.6 987288
18:00−5w2496100 0.4 989162
21:00−6wsw259696 0.6 990172